カタログに戻る

STARLINK-6179

運用中通信VLEO
NORAD 56910·PAYLOAD·🇺🇸 United States

打ち上げ Jun 12, 2023 から Cape Canaveral Space Force Station

Loading…

次のパス (今後24時間)

TLE

最新Source: CelesTrak SupGP

元期: Sep 14, 2026, 22:02 UTC

1 56910C 23083AL  26257.91854167  .00049616  00000+0  17972-2 0  2570
2 56910  43.0016  82.0309 0001307 270.5537 250.0090 15.27553113    19

AllMySatでSTARLINK-6179をリアルタイム追跡

Download on the App Store